WetterOnline ( https://www.wetteronline.de )

Wetter aktuell Alfeld

Aktuelles Wetter: Alfeld (148m)

6-stündlich | Neueste Meldungen
Ortszeit Temperatur Wetter
Di, 22.10. 2:00 10.9° C wolkig
Mo, 21.10. 20:00 13.2° C leicht bewölkt
Mo, 21.10. 14:00 18.1° C leicht bewölkt
Mo, 21.10. 8:00 11.9° C bedeckt
Mo, 21.10. 2:00 13.1° C bewölkt
So, 20.10. 20:00 12.9° C leichter Regen
So, 20.10. 14:00 13.2° C bewölkt
So, 20.10. 8:00 11.5° C Sprühregen
Ortszeit Temperatur Wetter
Di, 22.10. 2:30 10.6° C bedeckt
Di, 22.10. 2:20 10.6° C bedeckt
Di, 22.10. 2:10 10.9° C bedeckt
Di, 22.10. 2:00 10.9° C wolkig
Di, 22.10. 1:40 10.5° C wolkig
Di, 22.10. 1:30 10.7° C bewölkt
Di, 22.10. 1:00 11.5° C bewölkt
Di, 22.10. 0:30 11.6° C bedeckt
Di, 22.10. 0:00 12.0° C bedeckt
Mo, 21.10. 23:30 12.0° C bedeckt
Ortszeit Relative Feuchte Sichtweite
Di, 22.10. 2:00 94% 50 km
Mo, 21.10. 20:00 85% 50 km
Mo, 21.10. 14:00 73% 30 km
Mo, 21.10. 8:00 97% 13 km
Mo, 21.10. 2:00 97% 5.0 km
So, 20.10. 20:00 97% 7 km
So, 20.10. 14:00 92% 45 km
So, 20.10. 8:00 97% 30 km
Ortszeit Relative Feuchte Sichtweite
Di, 22.10. 2:30 94% 40 km
Di, 22.10. 2:20 94% -
Di, 22.10. 2:10 95% -
Di, 22.10. 2:00 94% 50 km
Di, 22.10. 1:40 94% -
Di, 22.10. 1:30 95% 40 km
Di, 22.10. 1:00 93% 55 km
Di, 22.10. 0:30 93% 50 km
Di, 22.10. 0:00 91% 60 km
Mo, 21.10. 23:30 91% 55 km
Ortszeit Niederschlagsmenge Niederschlagsart
Di, 22.10. 2:00 0.0 l/m2 in 6 Std. -
Mo, 21.10. 20:00 0.1 l/m2 in 12 Std. -
Mo, 21.10. 14:00 0.1 l/m2 in 6 Std. Regen
Mo, 21.10. 8:00 0.1 l/m2 in 12 Std. Sprühregen
Mo, 21.10. 2:00 0.1 l/m2 in 6 Std. Regen
So, 20.10. 20:00 2 l/m2 in 12 Std. Regen
So, 20.10. 14:00 0.4 l/m2 in 6 Std. Regen
So, 20.10. 8:00 4 l/m2 in 12 Std. Regen
Ortszeit Niederschlagsmenge Niederschlagsart
Di, 22.10. 2:30 0.0 l/m2 in 1 Std. -
Di, 22.10. 2:20 keine Meldung -
Di, 22.10. 2:10 keine Meldung -
Di, 22.10. 2:00 0.0 l/m2 in 1 Std. -
Di, 22.10. 1:40 keine Meldung -
Di, 22.10. 1:30 0.0 l/m2 in 1 Std. -
Di, 22.10. 1:00 0.0 l/m2 in 1 Std. -
Di, 22.10. 0:30 0.0 l/m2 in 1 Std. -
Di, 22.10. 0:00 0.0 l/m2 in 1 Std. -
Mo, 21.10. 23:30 0.0 l/m2 in 1 Std. -
Ortszeit Stärke Spitze Richtung
km/h Bft. km/h Grad Sektor
Di, 22.10. 2:00 4 1 14 110° O
Mo, 21.10. 20:00 4 1 25 190° S
Mo, 21.10. 14:00 13 3 22 140° SO
Mo, 21.10. 8:00 11 2 17 150° SO
Mo, 21.10. 2:00 7 2 18 350° N
So, 20.10. 20:00 4 1 11 290° W
So, 20.10. 14:00 6 1 7 320° NW
So, 20.10. 8:00 4 1 11 230° SW
Ortszeit Stärke Spitze Richtung
km/h Bft. km/h Grad Sektor
Di, 22.10. 2:30 4 1 7 220° SW
Di, 22.10. 2:20 4 1 - 220° SW
Di, 22.10. 2:10 4 1 - 220° SW
Di, 22.10. 2:00 4 1 7 110° O
Di, 22.10. 1:40 2 1 - 100° O
Di, 22.10. 1:30 4 1 4 150° SO
Di, 22.10. 1:00 4 1 7 170° S
Di, 22.10. 0:30 2 1 6 290° W
Di, 22.10. 0:00 4 1 7 130° SO
Mo, 21.10. 23:30 4 1 7 200° S
Ortszeit Untergrenze Bedeckung Gattung
total tief tief mittel hoch
Di, 22.10. 2:00 1800 m 8/8 1/8 - - -
Mo, 21.10. 20:00 6900 m 3/8 3/8 - - -
Mo, 21.10. 14:00 930 m 3/8 1/8 - - -
Mo, 21.10. 8:00 4200 m 8/8 8/8 - - -
Mo, 21.10. 2:00 60 m 8/8 4/8 - - -
So, 20.10. 20:00 90 m 8/8 8/8 - - -
So, 20.10. 14:00 120 m 7/8 7/8 - - -
So, 20.10. 8:00 60 m 8/8 8/8 - - -
Ortszeit Bedeckungsgrad in Achtel und Wolkenuntergrenze
Di, 22.10. 2:30 4(3300m) 8(4500m)
Di, 22.10. 2:20 4(3300m) 8(4500m)
Di, 22.10. 2:10 6(3300m) 8(4500m)
Di, 22.10. 2:00 1(1800m) 8(3300m) 8(3900m)
Di, 22.10. 1:40 1(1800m) 7(3300m) 7(3900m)
Di, 22.10. 1:30 2(3300m) 7(3900m) 7(4500m)
Di, 22.10. 1:00 2(3300m) 4(3900m) 7(4500m)
Di, 22.10. 0:30 8(3600m) 8(4500m)
Di, 22.10. 0:00 8(4200m) 8(5100m) 8(5100m)
Mo, 21.10. 23:30 7(4200m) 7(4800m) 8(5400m)
Ortszeit Luftdruck NN (hPa) Tendenz (hPa in 3 Std.)
Di, 22.10. 2:00 1022 + 0,5
Mo, 21.10. 20:00 1020 + 2,0
Mo, 21.10. 14:00 1018 + 1,0
Mo, 21.10. 8:00 1014 + 1,3
Mo, 21.10. 2:00 1013 + 2,5
So, 20.10. 20:00 1010 + 0,3
So, 20.10. 14:00 1010 0,0
So, 20.10. 8:00 1009 + 0,7
Ortszeit Luftdruck NN (hPa) Tendenz (hPa in 3 Std.)
Di, 22.10. 2:30 1023 + 0,8
Di, 22.10. 2:20 1023 keine Meldung
Di, 22.10. 2:10 1023 keine Meldung
Di, 22.10. 2:00 1022 + 0,5
Di, 22.10. 1:40 1023 keine Meldung
Di, 22.10. 1:30 1023 + 0,9
Di, 22.10. 1:00 1022 + 0,7
Di, 22.10. 0:30 1022 + 0,9
Di, 22.10. 0:00 1022 + 1,0
Mo, 21.10. 23:30 1022 + 1,3
Ortszeit Schneehöhe (cm)
Di, 22.10. 2:00 0
Mo, 21.10. 20:00 0
Mo, 21.10. 14:00 0
Mo, 21.10. 8:00 0
Mo, 21.10. 2:00 0
So, 20.10. 20:00 0
So, 20.10. 14:00 0
So, 20.10. 8:00 0
Ortszeit Schneehöhe (cm)
Di, 22.10. 2:30 0
Di, 22.10. 2:20 0
Di, 22.10. 2:10 0
Di, 22.10. 2:00 0
Di, 22.10. 1:40 0
Di, 22.10. 1:30 0
Di, 22.10. 1:00 0
Di, 22.10. 0:30 0
Di, 22.10. 0:00 0
Mo, 21.10. 23:30 0
Link zu dieser Seite / Seite empfehlen

Das Wetter in ...